This demonstration page uses our WeatherBlox Daily Observations layout. Learn more.

Left ArrowRight Arrow

44.8408, -93.29828

Hourly Observations for July 29, 2022

Temp ( °F °C ) Dew Point ( °F °C ) Humidity (%) Winds ( mph kmh ) Pressure ( in mb ) Visibility ( mi km ) Precip ( " mm )
12:53 am 00:53 Clear 63 17.2 54 12.2 73 73 WNW 6 9 30.01 1016 10 16 0.00 0.00
1:53 am 01:53 Clear 62 16.7 54 12.2 75 75 NW 7 11 30.01 1016 10 16 0.00 0.00
2:53 am 02:53 Clear 62 16.7 54 12.2 75 75 WNW 6 9 30.03 1017 10 16 0.00 0.00
3:53 am 03:53 Clear 61 16.1 54 12.2 78 78 NW 6 9 30.02 1017 10 16 0.00 0.00
4:53 am 04:53 Clear 60 15.6 54 12.2 80 80 NW 5 7 30.02 1017 10 16 0.00 0.00
5:53 am 05:53 Clear 60 15.6 55 12.8 84 84 NW 7 11 30.04 1017 10 16 0.00 0.00
6:53 am 06:53 Mostly Sunny 61 16.1 55 12.8 81 81 NNW 8 13 30.05 1018 10 16 0.00 0.00
7:53 am 07:53 Mostly Sunny 64 17.8 56 13.3 75 75 NNW 8 13 30.07 1018 10 16 0.00 0.00
8:53 am 08:53 Mostly Sunny 68 20 57 13.9 68 68 NW 9 15 30.09 1019 10 16 0.00 0.00
9:53 am 09:53 Partly Cloudy 69 20.6 54 12.2 59 59 WNW 10 17 30.09 1019 10 16 0.00 0.00
10:53 am 10:53 Mostly Cloudy 72 22.2 53 11.7 52 52 N 12 19 30.10 1019 10 16 0.00 0.00
11:53 am 11:53 Mostly Cloudy 75 23.9 54 12.2 48 48 WNW 9 15 30.09 1019 10 16 0.00 0.00
12:53 pm 12:53 Mostly Cloudy 75 23.9 51 10.6 43 43 NW 12 19 30.09 1019 10 16 0.00 0.00
1:53 pm 13:53 Mostly Cloudy 79 26.1 51 10.6 38 38 VRB 5 7 30.09 1019 10 16 0.00 0.00
2:53 pm 14:53 Mostly Cloudy 79 26.1 51 10.6 38 38 WNW 12 19 30.08 1019 10 16 0.00 0.00
3:53 pm 15:53 Partly Cloudy 80 26.7 51 10.6 37 37 NNW 13 20 30.08 1019 10 16 0.00 0.00
4:53 pm 16:53 Partly Cloudy 80 26.7 51 10.6 37 37 NNW 12 19 30.07 1018 10 16 0.00 0.00
5:53 pm 17:53 Sunny 79 26.1 50 10 36 36 NW 13 20 30.07 1018 10 16 0.00 0.00
6:53 pm 18:53 Mostly Sunny 80 26.7 51 10.6 37 37 NW 6 9 30.07 1018 10 16 0.00 0.00
7:53 pm 19:53 Mostly Sunny 78 25.6 52 11.1 40 40 NW 9 15 30.06 1018 10 16 0.00 0.00
8:53 pm 20:53 Mostly Clear 75 23.9 53 11.7 46 46 WNW 5 7 30.07 1018 10 16 0.00 0.00
9:53 pm 21:53 Mostly Clear 73 22.8 54 12.2 51 51 Calm 30.08 1019 10 16 0.00 0.00
10:53 pm 22:53 Mostly Clear 70 21.1 55 12.8 59 59 Calm 30.09 1019 10 16 0.00 0.00
11:53 pm 23:53 Clear 67 19.4 57 13.9 71 71 SE 5 7 30.10 1019 10 16 0.00 0.00

Powered by AerisWeather